RH
46 48 52 52 49 49 55 54 49 49 49 50 45 46 51 52 60 56 54 62 61 69 79 82 84 80 74 73 71 71 71 62 56 62 66 65 58 55 58 62 65 67 72 78 80 84 88 87 89 94 94 94 92 91 94 98 99 98 97 93 90 90 92 94 87 80 79 83 84 86 88 93 98 100 99 90 87 84 82 93 97 96 93 92 92 93 98 99 100 98 97 95 96 99 90 91 96
46 49 53 52 49 50 56 55 49 51 53 52 47 47 53 57 62 51 44 50 60 73 79 82 84 81 79 80 81 76 69 67 62 62 66 64 59 56 57 59 64 70 74 79 83 88 90 88 91 95 94 94 92 91 95 99 99 95 94 93 91 91 94 90 80 73 72 79 81 83 92 96 97 98 100 91 87 85 84 93 94 93 92 91 93 92 96 98 100 99 98 98 97 100 93 93 90
46 48 55 54 53 55 56 54 50 54 58 53 45 47 54 54 50 45 49 59 72 80 77 81 83 82 81 77 77 73 67 69 66 63 65 63 63 61 58 59 63 72 78 82 86 90 92 89 92 96 94 95 96 94 97 99 97 95 96 95 91 92 92 87 79 73 69 73 80 86 94 96 95 97 96 88 88 91 91 96 91 91 94 93 95 90 95 100 100 100 99 100 98 95 93 96 81
48 48 55 56 53 53 52 53 52 56 57 54 48 49 52 48 44 48 63 73 78 81 80 80 76 80 80 71 72 73 69 71 68 66 67 65 66 64 61 60 62 72 79 84 87 90 90 87 91 97 95 96 98 96 97 98 95 95 96 94 91 93 92 86 77 74 72 72 81 90 95 96 96 95 91 84 91 98 95 98 93 93 95 92 94 90 94 100 100 100 99 98 99 94 94 93 70
51 49 54 55 50 50 53 57 59 59 54 53 51 48 48 46 47 54 69 78 81 82 83 79 70 75 78 74 77 73 67 71 71 68 69 67 66 65 64 63 64 68 76 85 86 88 88 84 90 97 98 99 98 96 97 96 95 96 96 95 94 97 96 90 79 76 78 77 86 94 97 98 95 94 92 85 90 100 98 99 96 94 96 92 93 91 93 99 100 100 98 97 99 96 95 87 61
57 57 57 55 53 55 58 61 62 60 50 49 50 44 43 46 52 58 67 78 85 85 84 81 72 73 74 74 77 72 69 72 73 70 70 69 69 68 67 66 68 70 76 86 85 86 89 86 91 96 99 99 98 95 96 97 97 99 97 94 93 94 92 92 89 84 83 84 90 95 96 95 93 93 92 89 91 98 98 98 98 98 99 97 96 95 95 98 99 99 98 99 101 99 99 87 57
61 62 62 57 57 59 58 59 59 56 49 49 49 43 42 48 58 61 62 69 79 83 83 81 78 75 69 69 70 68 67 69 71 70 70 69 70 70 70 69 73 78 81 88 86 87 91 90 94 97 98 98 99 96 96 99 98 99 95 89 87 89 86 86 90 90 90 91 91 92 93 93 90 89 91 94 96 97 97 98 100 100 100 100 99 99 100 98 97 98 97 99 100 98 101 84 48
62 62 65 58 56 62 60 60 57 54 52 51 50 47 47 54 63 61 57 62 68 74 80 83 82 72 64 68 64 62 63 65 69 67 69 71 73 73 72 72 77 84 86 90 89 88 90 91 96 98 99 97 96 95 97 100 98 96 90 87 86 88 87 81 84 87 88 89 90 91 92 92 88 87 94 97 97 97 97 98 100 100 100 100 100 99 100 97 95 99 98 98 101 99 92 66 36
65 62 65 59 58 65 63 60 57 56 55 53 52 53 56 63 68 64 59 60 65 69 74 80 80 68 63 70 64 61 61 60 63 62 64 67 71 75 74 74 77 84 86 90 91 88 88 91 98 100 99 98 93 94 97 99 97 92 87 87 87 89 87 79 82 84 81 83 90 93 92 94 92 90 95 96 95 96 97 99 99 99 99 99 100 100 100 97 94 100 92 79 83 84 67 41 26
64 63 61 58 60 65 63 58 57 57 54 51 52 54 57 65 71 67 63 61 66 69 70 77 77 68 62 65 63 61 59 57 60 60 62 62 66 74 74 74 76 81 85 89 92 92 92 94 99 100 99 99 94 96 99 97 95 91 88 88 87 91 87 81 87 88 84 87 92 94 93 96 98 95 95 95 94 96 99 99 98 99 100 100 100 99 99 98 96 98 80 47 42 44 34 24 20
59 63 61 60 64 64 59 55 55 53 49 50 50 54 57 64 71 67 67 66 68 70 72 75 70 68 66 63 63 58 56 57 59 59 61 63 64 72 74 74 76 79 84 89 93 94 94 95 99 99 98 99 94 95 98 95 93 93 93 91 89 90 88 87 90 90 92 93 92 93 95 96 98 98 98 97 95 99 100 97 99 99 100 100 100 99 98 100 97 98 80 40 22 22 20 19 19
58 59 61 63 64 60 59 61 60 55 50 51 48 54 62 65 66 57 59 65 66 69 73 73 66 66 64 61 62 57 56 58 60 60 61 62 65 73 76 75 76 78 83 89 92 92 92 93 97 99 98 100 97 96 98 94 93 96 97 93 90 89 89 92 92 92 96 95 92 93 95 96 98 99 98 98 98 99 98 98 100 99 100 99 99 99 98 100 98 101 87 46 23 21 21 21 20
61 57 60 62 61 61 69 70 64 62 53 48 48 55 63 62 56 49 52 60 62 65 67 71 69 65 59 57 60 57 55 57 60 61 61 61 65 73 77 79 78 80 86 90 91 91 92 93 96 99 98 100 100 99 99 95 93 95 96 92 89 88 88 91 94 96 97 94 93 92 93 96 97 95 93 97 97 98 98 98 100 100 100 100 99 100 100 101 99 94 70 36 22 22 23 22 22
63 61 61 63 68 68 72 68 60 62 49 41 50 55 61 59 54 56 58 53 54 60 63 69 72 66 59 53 54 57 56 55 58 59 60 61 64 70 77 82 82 86 89 89 91 91 93 94 96 99 98 99 100 100 100 97 93 92 94 91 89 92 90 91 94 95 93 91 91 90 90 92 91 89 89 91 97 101 93 85 95 100 96 99 100 98 96 94 86 67 40 23 22 22 21 21 20
66 64 59 60 67 66 68 66 60 60 44 36 48 53 57 56 52 62 63 52 52 62 65 69 72 62 55 48 45 54 54 55 60 60 60 62 67 72 79 83 85 92 94 92 93 92 93 93 94 98 99 100 99 100 100 98 95 93 92 91 91 93 91 90 91 90 87 87 86 84 83 84 83 83 80 81 95 93 64 51 70 76 73 85 87 82 83 77 67 48 27 22 20 17 15 13 12
69 63 57 56 61 62 64 63 57 53 39 33 46 49 47 45 45 54 56 55 59 63 64 66 69 58 52 52 47 50 52 57 62 62 63 65 71 75 79 85 91 99 98 96 96 94 95 92 93 97 98 100 99 99 100 98 96 94 92 92 93 91 88 88 89 85 82 82 79 75 76 78 76 76 73 74 79 65 37 28 40 44 55 79 75 66 71 64 53 38 24 21 16 10 7 5 5
69 60 56 56 60 60 57 52 45 38 30 29 41 45 37 35 41 46 46 52 58 60 62 62 65 56 50 51 46 46 51 57 60 63 67 69 75 76 82 91 97 101 100 98 96 97 99 95 96 98 96 98 98 99 100 98 93 93 93 93 93 89 87 87 86 82 79 79 76 71 71 74 74 71 73 72 59 43 32 25 25 26 45 74 66 51 57 52 41 29 21 19 11 5 3 4 4
63 54 54 50 51 53 47 40 37 33 29 27 35 40 37 33 38 44 41 44 53 54 56 59 58 45 41 43 40 43 49 54 59 64 69 72 75 73 80 92 94 97 100 100 98 98 100 97 98 98 97 97 98 99 98 97 93 93 94 92 91 89 88 87 85 81 77 77 77 72 68 69 69 68 69 61 47 40 34 24 23 21 29 49 46 35 41 41 31 23 21 16 7 4 4 4 4
55 50 49 40 40 48 46 38 37 37 33 31 35 39 40 37 37 44 37 33 42 42 40 51 53 37 33 36 33 37 43 50 55 62 70 70 72 72 74 83 88 95 98 99 99 98 99 98 99 99 99 99 100 100 98 96 93 93 94 91 90 89 88 87 85 82 76 73 71 69 66 64 61 60 59 51 44 43 34 25 24 20 21 29 27 23 27 29 25 23 20 13 6 4 4 4 5
50 50 38 31 36 40 45 44 41 41 41 38 36 39 42 41 41 43 36 30 33 32 27 36 42 33 31 33 29 30 36 44 50 60 73 76 79 83 80 79 83 89 92 95 97 98 100 99 99 100 100 100 100 100 100 98 94 93 93 91 90 89 89 88 86 81 76 72 68 65 64 62 59 56 57 56 56 53 42 31 25 21 21 21 21 21 23 25 25 25 21 13 7 4 4 4 5
45 46 28 32 43 35 37 45 44 45 46 42 37 38 38 37 41 41 36 32 28 25 24 26 29 25 28 31 28 27 30 37 43 51 67 79 87 91 89 84 83 88 94 97 97 96 100 100 100 100 99 100 100 100 100 99 97 96 96 93 91 90 89 88 87 81 74 71 67 62 61 63 61 59 60 62 62 59 51 38 28 25 22 20 21 22 22 25 25 26 23 15 8 4 5 4 5
37 36 29 36 46 33 31 41 42 40 38 36 34 32 31 32 37 39 37 33 26 21 23 25 26 26 26 29 27 26 29 32 36 40 48 64 80 90 95 96 94 95 98 100 98 96 98 99 100 100 100 100 100 100 100 100 99 98 97 94 93 93 90 88 88 83 74 69 64 58 59 62 62 59 58 59 56 54 55 48 35 26 23 21 21 21 22 24 25 26 25 19 11 5 4 5 5
27 25 32 37 44 37 34 41 39 36 32 29 29 28 31 31 29 34 36 33 26 22 24 24 23 26 26 28 28 28 31 31 32 33 34 43 56 68 79 89 94 96 98 100 100 98 97 98 98 97 98 99 99 99 100 100 99 97 95 94 94 94 90 87 88 86 76 67 62 56 55 55 54 53 51 50 47 46 49 47 39 30 25 23 22 22 22 23 25 26 26 24 15 8 5 4 5
28 22 27 31 39 40 37 39 36 35 33 28 29 29 30 28 25 31 33 28 25 20 20 21 18 21 24 25 27 28 31 33 33 33 35 37 39 47 58 71 84 94 99 99 100 98 93 95 97 97 96 98 98 98 99 100 99 98 97 96 96 94 88 87 89 89 80 67 61 56 54 51 45 43 41 40 38 37 37 38 38 32 26 24 24 24 23 23 24 25 27 27 21 13 7 4 5
29 24 26 30 33 33 32 32 30 31 30 27 30 29 27 25 26 30 25 19 20 18 16 17 17 18 19 20 21 22 26 29 31 33 35 37 40 48 58 73 87 95 99 99 100 98 94 94 96 98 99 99 99 99 99 100 100 100 100 99 99 96 91 90 90 90 82 68 61 57 54 50 42 38 36 34 34 33 32 33 34 30 27 26 26 25 25 24 24 25 26 27 27 19 11 6 5
26 24 27 28 26 26 27 26 26 27 28 29 28 24 24 26 26 24 18 15 17 18 17 17 19 19 19 19 19 19 21 22 23 25 31 37 44 50 57 73 88 92 95 99 100 99 99 97 94 96 99 100 100 100 100 100 100 99 100 100 100 100 94 93 93 92 86 72 63 58 55 51 41 37 37 36 36 36 34 33 32 30 29 29 29 28 27 26 25 25 26 27 29 25 19 11 6
27 26 27 25 23 25 25 23 26 27 27 29 27 22 22 26 27 20 15 16 17 17 17 18 19 20 20 20 21 21 20 21 20 23 29 34 39 41 48 64 78 87 94 98 99 100 99 93 92 94 96 100 100 100 100 99 100 99 100 99 97 100 97 95 96 94 89 78 69 62 57 53 44 39 40 40 39 40 39 36 34 32 32 31 31 31 29 29 27 26 27 28 29 28 26 19 11
26 25 24 22 22 23 22 24 28 28 24 26 30 26 24 29 29 20 15 15 16 16 16 17 17 17 18 20 21 22 22 22 23 25 27 27 28 32 39 47 58 74 86 93 98 101 96 87 91 95 92 96 97 99 101 98 101 100 100 98 93 98 99 97 98 96 91 84 76 70 62 56 50 46 44 45 44 45 46 45 42 37 34 34 33 33 31 30 29 28 28 28 29 29 29 26 20
25 25 23 20 18 19 23 27 30 29 23 27 32 23 21 29 26 17 14 14 15 17 16 16 17 17 18 19 20 21 21 22 24 25 25 25 27 31 35 37 47 63 73 83 93 100 97 83 87 98 95 95 96 96 101 99 100 100 99 96 90 93 97 96 97 94 90 89 84 77 71 63 56 54 52 52 50 49 52 54 53 47 41 37 35 35 33 32 31 29 29 28 29 29 30 30 27
25 26 24 21 17 18 27 31 31 29 25 28 28 16 12 20 20 15 15 16 17 19 18 18 19 20 20 22 21 21 21 20 21 22 23 24 26 30 32 34 44 55 63 75 83 94 101 85 81 96 97 97 100 98 100 100 100 100 100 98 91 88 92 94 95 89 83 88 90 83 78 72 65 61 59 59 56 53 55 58 60 58 53 45 39 36 35 34 33 31 31 30 30 30 30 31 30
25 27 27 24 18 17 27 34 31 26 26 28 27 19 11 10 12 16 18 18 21 21 20 20 20 22 23 24 24 25 25 25 25 24 23 23 23 25 28 30 36 42 49 60 67 80 99 90 75 86 94 95 99 100 100 100 100 99 97 99 97 90 90 90 89 88 83 82 87 88 85 80 73 67 63 62 60 57 57 59 61 62 60 54 46 42 39 37 36 35 34 33 32 32 32 32 32
23 24 22 23 20 17 24 34 35 28 26 28 26 20 14 10 13 19 21 21 22 21 19 20 20 21 22 23 25 26 27 30 32 32 33 31 26 24 24 27 31 35 37 42 50 65 91 97 78 77 90 95 96 98 100 100 99 99 95 96 98 93 89 85 84 89 87 82 82 86 89 87 80 72 68 66 63 61 60 59 61 62 61 59 56 52 47 43 41 39 38 37 36 35 35 34 34
24 23 18 19 20 17 21 31 39 34 28 28 25 21 17 13 15 20 21 19 19 19 19 21 22 24 26 28 30 31 32 35 38 38 35 33 31 29 28 27 29 35 43 49 56 66 85 98 90 81 88 96 96 95 98 100 99 98 95 95 97 96 91 86 86 90 88 85 84 85 86 88 87 81 74 71 68 68 65 61 62 63 59 57 58 57 54 53 51 46 43 41 39 39 38 38 37
20 24 21 20 22 21 20 27 37 36 31 29 26 26 22 15 16 18 18 18 19 21 23 26 29 31 34 37 40 41 41 44 50 49 40 33 29 28 30 32 32 35 45 57 69 81 86 92 95 92 91 96 99 96 96 99 96 92 91 93 96 97 97 91 88 90 88 84 84 86 85 85 88 88 84 78 74 74 72 65 63 63 58 55 56 56 55 59 63 59 55 52 47 44 42 41 41
19 22 19 21 24 25 23 26 34 35 34 34 29 28 24 17 16 16 19 23 24 27 30 33 36 37 41 45 47 49 51 55 59 56 47 40 33 27 26 30 34 35 41 51 70 88 91 90 94 96 96 97 100 99 97 98 95 92 92 95 97 96 96 94 91 93 92 87 86 85 84 83 83 85 86 83 78 78 77 71 69 68 65 61 60 59 57 60 66 67 66 66 62 57 52 47 44
24 26 24 24 24 25 25 26 36 41 36 32 29 27 22 18 16 16 22 29 30 33 37 39 41 43 46 50 52 54 56 60 62 56 50 46 40 33 28 29 33 36 37 45 69 92 97 95 94 95 99 99 99 100 99 99 98 98 98 98 100 98 96 95 92 91 92 90 91 91 87 85 82 80 83 83 82 82 82 78 76 76 74 70 68 67 65 64 65 66 64 67 72 70 65 58 52
28 31 30 29 27 26 24 26 37 45 35 24 24 25 21 17 15 18 26 31 34 38 40 42 44 46 49 52 55 56 58 61 60 56 52 48 44 38 34 33 35 39 42 44 61 90 101 99 96 97 100 100 99 101 100 100 100 100 100 99 99 99 97 95 88 86 85 81 85 92 93 91 85 80 82 87 88 87 87 84 78 77 76 75 75 74 74 71 68 69 65 60 64 66 65 65 65
33 32 29 29 30 26 24 28 34 38 30 21 20 21 17 15 17 23 29 32 37 41 43 46 47 48 51 54 57 58 60 62 59 55 52 49 47 43 39 38 39 44 53 59 67 85 99 100 99 99 99 100 100 100 99 100 100 99 100 99 99 98 95 90 85 84 85 82 84 86 89 93 93 87 83 87 90 89 89 87 80 76 75 76 80 81 79 77 74 75 71 59 54 59 62 65 70
35 31 30 30 28 23 24 30 34 33 26 17 18 19 14 15 21 25 30 35 40 45 47 50 50 51 52 55 58 60 61 63 61 58 55 53 52 49 45 44 46 47 55 74 89 95 98 100 100 99 99 100 100 100 100 100 100 100 100 99 100 99 88 82 84 86 87 89 92 90 88 91 95 95 87 84 87 86 85 86 85 83 82 81 83 84 82 81 80 79 78 71 64 64 66 66 70
33 30 29 26 25 23 21 26 31 30 25 21 22 22 17 18 23 25 31 38 42 46 49 52 54 54 55 57 59 61 63 65 65 63 60 58 56 54 53 51 52 52 52 67 88 98 100 99 100 100 100 100 100 100 100 100 100 99 100 99 100 100 92 88 91 90 88 89 93 94 93 91 93 96 95 92 93 90 84 84 88 88 88 86 82 83 85 82 81 82 81 83 78 72 72 73 73
29 30 29 24 25 25 21 22 25 23 25 27 24 19 16 17 21 24 29 36 42 47 49 51 55 57 58 60 61 63 65 67 68 68 66 62 59 57 58 58 57 58 59 63 74 89 99 100 100 100 99 100 100 100 99 100 100 100 100 100 99 100 99 99 98 96 94 91 90 89 87 88 90 93 94 96 99 98 93 90 90 88 87 86 82 84 89 86 84 84 83 85 82 78 82 84 81
24 27 29 26 25 26 25 24 22 16 16 22 18 13 13 15 20 25 30 35 41 46 50 52 55 58 61 62 64 66 67 68 67 67 67 65 63 59 56 57 59 63 70 73 74 80 89 96 100 100 100 100 99 100 100 100 100 100 100 100 100 100 100 100 99 98 96 92 89 86 83 86 88 89 92 93 97 100 98 95 93 92 91 89 87 90 93 91 88 87 87 87 85 83 84 85 85
22 25 29 30 29 28 27 23 20 15 13 17 17 14 13 15 21 26 31 37 40 43 47 52 55 59 63 65 68 70 71 72 70 66 65 64 63 61 58 56 57 60 66 72 75 78 84 91 96 98 100 100 99 99 100 100 100 100 100 100 100 100 100 100 99 97 96 94 92 86 83 88 90 91 94 94 96 98 99 99 98 98 98 96 96 97 96 93 91 88 87 87 87 87 83 81 84
23 30 31 28 28 26 25 22 19 17 17 20 18 16 15 16 23 28 30 37 41 43 46 51 56 60 64 68 71 74 76 77 76 72 68 65 61 61 61 59 57 56 56 58 64 72 83 90 95 98 99 99 100 100 100 100 99 100 100 100 100 100 100 100 100 99 98 99 98 92 88 92 95 95 96 96 96 96 98 100 100 100 100 99 98 98 95 92 90 89 87 86 87 89 87 84 84
24 36 37 30 28 25 25 23 21 21 24 24 18 17 18 16 23 28 29 37 44 48 49 51 56 62 66 71 73 75 78 79 78 76 71 66 62 60 61 61 59 57 55 54 54 57 65 76 86 94 96 97 99 99 99 100 100 100 99 99 100 100 100 100 100 100 100 100 100 98 97 98 99 98 98 98 97 97 96 96 96 96 95 93 92 91 89 88 86 86 86 85 86 87 88 87 87
32 41 38 34 32 30 29 25 24 26 29 27 19 16 17 15 22 29 31 43 52 51 49 51 57 63 67 71 74 76 78 80 80 77 73 68 63 60 59 58 58 58 58 57 55 53 52 55 64 74 83 92 97 99 100 99 99 100 99 100 100 99 100 100 99 100 100 100 100 100 100 100 100 99 98 97 95 93 92 91 90 90 89 87 87 86 85 84 84 83 83 84 84 84 84 84 84
40 36 27 25 25 28 31 27 27 29 28 26 22 21 18 16 28 39 41 49 56 55 52 52 57 63 68 71 74 77 79 82 83 79 75 68 62 58 57 57 58 58 58 57 57 57 55 53 53 55 60 69 79 88 96 99 99 100 99 99 99 99 99 100 100 100 99 100 99 99 99 98 97 97 95 94 93 92 90 89 88 87 87 86 85 85 84 84 83 83 83 83 84 83 83 83 82
34 25 20 21 19 20 26 26 27 27 23 21 24 27 21 17 31 44 47 49 53 56 58 57 59 64 69 71 73 77 79 80 83 84 81 72 62 55 53 54 54 54 56 58 58 58 58 58 57 55 54 54 57 63 71 81 89 95 98 99 100 100 99 99 99 99 99 99 99 98 97 97 96 95 95 94 92 92 90 89 88 88 87 86 86 85 84 84 83 83 83 83 83 82 82 81 81
27 23 22 24 19 18 21 21 22 21 19 22 26 27 22 22 36 47 48 47 49 54 58 60 64 67 69 71 73 77 79 79 82 86 88 86 79 70 61 57 56 54 53 54 57 58 60 60 60 60 60 59 58 56 56 58 63 69 77 84 90 95 98 100 100 100 100 100 99 98 97 96 95 94 93 93 93 92 90 89 88 88 87 86 86 85 84 84 83 82 82 81 81 81 80 80 79
26 22 22 24 21 23 24 20 20 21 21 24 25 25 24 28 41 48 46 47 50 53 58 62 67 68 69 74 77 81 82 82 83 86 89 92 93 91 81 68 60 57 55 52 52 54 57 60 61 62 63 63 63 62 61 59 58 57 58 60 64 71 78 84 89 93 96 98 99 99 98 96 95 93 90 89 89 89 89 88 87 86 86 85 85 84 84 83 83 82 81 81 80 80 79 78 76
25 20 19 22 20 24 28 24 25 27 24 23 23 26 27 31 40 46 46 50 52 53 57 62 66 67 69 75 79 82 85 86 85 86 90 92 94 98 95 81 68 61 57 55 53 52 52 55 59 62 63 65 65 65 65 64 64 64 63 60 58 57 58 61 65 70 74 80 84 87 90 91 91 91 89 87 85 83 83 83 82 82 82 82 82 82 82 82 82 82 82 82 81 80 80 78 76
23 19 17 22 21 20 24 26 28 29 28 26 23 25 32 37 41 44 46 50 52 54 57 58 61 63 64 70 76 78 83 89 88 86 90 95 95 96 97 94 88 77 66 61 58 56 54 51 53 57 60 64 66 67 68 67 68 68 68 67 66 64 62 59 58 57 58 59 61 64 68 71 75 77 78 78 77 77 76 75 74 73 72 73 73 73 74 75 77 78 80 81 82 81 80 79 78
21 20 19 21 21 17 23 29 27 28 33 30 22 23 33 38 40 42 45 48 49 53 57 57 59 60 58 63 73 76 78 85 88 84 85 95 99 97 96 96 97 92 84 77 69 62 59 55 51 51 53 58 63 66 68 69 70 69 69 70 70 70 69 67 66 64 62 60 57 56 55 56 58 60 61 62 63 65 66 67 67 67 66 66 66 66 66 66 68 70 71 74 78 80 81 80 79
19 21 21 20 22 19 21 31 32 33 38 32 22 25 30 29 36 45 46 47 49 51 56 58 59 60 57 59 70 78 79 81 87 83 80 90 99 100 99 98 97 96 94 90 82 72 65 61 58 53 49 49 54 61 65 68 71 72 72 72 72 72 71 71 72 72 71 71 68 66 62 59 56 55 54 53 53 53 54 55 57 57 58 59 60 61 61 62 64 64 64 67 70 74 77 77 78
23 24 22 21 29 28 25 34 38 40 45 40 32 35 33 25 31 43 45 47 51 51 53 56 59 62 59 56 65 78 82 80 83 82 77 81 91 97 99 100 98 97 94 92 89 84 75 65 61 58 52 47 46 51 58 63 67 70 73 75 75 74 74 73 73 73 74 75 75 74 73 71 68 65 62 59 56 54 53 52 51 51 52 52 53 55 56 57 59 59 61 63 64 68 71 71 74
27 26 23 22 27 28 29 33 34 39 49 51 47 46 38 26 28 39 46 49 51 53 55 57 63 67 63 57 61 73 79 77 77 78 75 74 81 91 97 99 99 98 96 93 89 91 86 71 62 59 54 49 46 46 52 59 62 64 66 70 72 74 76 76 75 75 75 75 75 76 76 76 76 75 74 72 70 67 64 61 58 56 55 53 53 53 54 55 57 57 59 62 64 68 69 68 71
25 26 28 29 27 27 32 34 33 40 47 50 55 53 38 28 35 44 48 50 50 54 58 61 66 69 66 60 59 65 71 75 75 75 76 74 73 84 95 97 97 97 95 92 88 91 94 81 67 64 61 55 50 46 48 55 62 63 62 63 65 67 70 73 75 77 77 77 77 77 77 77 78 79 79 79 80 79 78 76 74 72 69 66 63 60 59 59 61 62 63 65 68 72 73 71 73
25 27 31 32 32 34 41 46 42 41 43 44 51 54 42 36 43 47 49 51 51 54 61 65 67 68 67 63 60 60 62 67 72 73 75 74 72 82 94 94 95 96 94 92 88 89 96 92 78 69 66 61 57 53 50 54 61 64 63 62 62 62 63 65 68 71 73 75 76 76 77 77 77 78 79 79 81 81 82 83 84 84 84 84 82 78 75 71 69 69 71 73 75 78 78 78 78
Wind_Speed
8 9 9 8 7 5 1 2 4 2 2 6 6 6 2 1 2 4 6 3 3 1 4 5 3 6 6 2 4 7 7 7 5 4 3 2 3 2 2 8 14 19 24 28 28 27 25 25 23 21 22 24 24 23 22 22 22 21 19 17 17 15 14 13 11 9 7 7 7 7 8 7 7 6 5 4 3 3 5 9 11 11 11 10 11 10 11 11 12 12 13 12 12 12 11 12 13
8 8 8 7 6 4 1 0 5 3 5 8 6 6 1 3 2 8 9 6 3 1 2 5 6 9 10 6 6 8 10 13 12 9 6 3 3 2 1 7 14 19 25 28 27 26 25 25 23 22 23 24 24 23 23 23 22 20 18 17 17 16 14 12 10 8 7 7 7 8 9 9 7 6 6 3 3 5 6 10 12 11 11 11 11 10 10 11 12 12 12 12 12 12 11 12 13
7 7 7 5 3 2 2 1 5 6 7 9 7 2 1 2 6 7 6 5 3 1 2 4 7 9 10 9 7 7 8 10 16 16 13 10 7 4 2 7 14 18 24 28 27 25 25 26 24 23 24 24 23 23 24 23 21 19 18 17 16 14 12 11 10 7 7 8 8 9 10 9 7 6 5 4 4 7 8 11 11 11 11 11 11 10 10 11 11 11 12 12 12 12 12 13 14
7 6 5 4 2 1 2 3 4 6 8 8 7 0 2 5 6 5 3 3 3 4 3 4 5 7 10 11 7 7 10 10 14 16 13 13 10 8 6 8 14 18 25 29 28 25 25 27 24 24 25 25 24 24 25 23 22 22 19 17 14 12 11 10 8 7 9 10 10 10 10 9 8 6 5 5 6 8 9 10 11 11 11 11 11 10 10 11 11 11 12 12 13 12 12 13 14
7 7 4 2 3 2 1 2 1 4 7 5 6 2 0 3 5 5 2 3 5 4 5 5 4 5 9 11 6 4 8 8 11 13 13 14 12 9 8 10 14 19 26 29 29 27 25 27 25 24 25 25 24 24 24 23 23 22 20 17 14 13 12 10 8 8 10 11 11 10 10 10 8 6 5 7 7 8 8 7 10 11 11 11 11 11 10 11 11 11 12 12 13 12 12 13 14
5 5 3 1 2 1 1 3 3 6 5 3 7 7 4 3 4 6 3 3 5 6 6 6 5 4 5 9 11 11 11 8 7 8 11 13 12 11 10 13 17 21 26 30 31 28 26 27 26 25 26 25 25 25 24 23 21 20 19 18 15 13 12 10 9 9 10 11 12 11 10 9 8 8 7 8 8 8 5 5 10 11 10 11 11 12 11 11 11 11 11 11 12 12 12 13 13
3 3 1 2 2 1 5 6 6 7 3 1 6 8 8 5 4 5 4 4 5 6 7 8 6 5 5 6 9 13 15 14 12 11 11 10 10 11 12 15 19 23 28 31 32 29 26 27 26 26 27 25 26 26 24 23 22 21 19 17 14 12 10 10 10 10 11 11 11 12 11 10 9 9 8 9 9 7 6 8 11 10 10 10 11 11 11 11 11 11 12 11 11 12 12 12 12
4 3 1 3 2 1 5 6 7 7 3 1 6 8 10 8 5 6 6 4 3 4 7 9 7 5 6 5 7 10 12 13 14 14 14 14 12 11 13 17 21 25 29 31 32 30 28 28 27 27 27 26 27 27 25 24 23 21 18 15 14 11 10 10 10 11 11 11 12 12 12 11 11 10 9 10 9 8 8 10 10 10 10 10 10 10 11 11 11 11 11 11 11 11 11 12 11
3 3 2 4 3 3 5 7 7 6 5 5 6 8 10 8 6 7 8 6 4 3 5 8 8 5 3 4 9 11 13 13 14 14 13 15 14 13 14 18 22 26 30 31 32 32 29 28 27 28 28 28 28 27 26 25 21 19 16 16 15 13 13 11 9 11 11 12 13 12 11 12 12 11 10 9 8 8 9 10 10 10 10 10 11 10 10 11 11 11 11 11 10 11 11 11 11
3 2 2 2 3 5 7 7 5 3 5 5 6 9 10 7 5 7 8 7 4 4 5 6 9 11 7 6 10 11 13 14 14 15 12 12 12 13 14 18 23 27 30 31 31 31 30 29 27 28 29 29 29 26 26 23 19 18 18 17 16 16 14 12 11 11 11 13 14 12 11 11 12 12 11 10 9 9 9 10 10 9 9 10 10 10 10 10 10 10 11 11 10 10 10 11 10
4 1 1 3 4 6 7 7 6 4 4 5 7 8 8 5 5 6 8 8 5 5 5 5 6 11 11 9 9 11 12 11 11 12 11 11 10 11 14 18 23 28 31 33 31 30 30 29 27 29 30 29 28 26 24 21 19 18 18 18 17 16 13 12 12 12 13 14 14 14 13 12 12 12 11 11 10 10 9 9 9 9 9 9 10 10 10 9 10 10 10 12 12 11 10 10 10
5 2 2 5 5 7 6 7 7 7 7 7 5 1 1 2 4 5 7 7 6 7 8 9 5 4 7 6 7 11 13 12 11 11 10 11 11 10 14 19 24 28 31 33 32 31 30 30 28 29 29 28 27 24 22 20 19 19 18 17 16 15 13 12 12 12 13 13 13 14 14 14 13 12 12 12 11 11 10 9 10 9 9 9 10 10 9 9 9 9 9 12 13 12 11 10 10
5 2 4 5 3 5 5 6 6 7 8 4 1 2 1 2 5 7 6 7 7 7 7 10 9 5 7 8 10 16 16 12 11 11 11 10 11 12 15 20 25 29 31 33 32 31 30 30 30 29 28 25 25 24 22 20 19 19 18 16 15 14 13 13 13 14 14 12 12 13 14 15 14 14 14 12 12 12 11 9 9 9 9 9 9 9 9 9 9 9 9 11 13 12 11 11 10
5 3 5 4 1 3 5 6 6 5 6 2 2 1 2 3 6 7 6 9 7 6 6 8 9 6 8 9 7 8 8 7 6 8 9 9 10 12 15 20 26 30 32 32 31 30 30 31 30 29 28 25 24 24 22 20 19 19 17 15 15 14 13 15 16 16 14 12 12 13 15 16 15 15 14 11 11 12 10 9 9 9 9 9 9 8 8 8 8 9 10 11 12 11 11 11 11
5 4 4 4 3 4 5 5 5 6 5 3 2 2 3 7 7 6 7 9 6 6 8 6 8 5 4 5 3 3 7 9 7 7 8 7 9 11 14 19 26 30 32 32 31 31 31 32 31 29 28 26 24 23 21 21 20 20 18 16 17 17 15 15 16 15 13 13 13 14 15 15 15 14 12 10 10 11 8 6 8 8 8 8 8 8 8 8 8 9 10 11 11 11 11 11 12
6 5 4 5 5 4 3 3 4 6 4 3 2 3 4 7 6 6 7 8 8 9 10 8 11 9 7 8 10 13 15 15 13 11 9 8 9 11 13 18 24 29 31 32 31 31 32 33 33 30 28 27 25 23 22 21 20 19 18 17 19 18 16 17 16 14 13 14 14 14 14 15 14 14 12 9 10 9 5 3 4 5 7 8 8 8 8 8 8 8 9 9 9 10 10 11 12
6 5 5 5 4 4 3 3 3 3 5 3 0 2 5 7 5 7 9 11 11 11 13 12 14 17 17 17 19 21 20 20 19 16 12 10 10 12 14 17 23 30 31 32 32 31 32 33 33 32 29 28 28 26 24 23 21 19 18 17 18 17 16 17 17 14 14 15 16 15 15 15 15 15 13 11 11 8 4 3 3 3 5 8 7 7 8 8 8 8 8 8 9 10 11 12 12
6 3 4 5 5 4 3 5 4 3 7 5 1 2 6 9 6 6 9 11 12 14 18 18 18 21 21 22 23 23 23 24 23 19 16 14 13 14 16 20 23 29 32 32 32 32 32 33 32 32 30 29 29 28 26 25 23 20 19 18 18 17 17 18 18 16 15 15 17 16 16 16 15 15 15 13 11 8 6 6 5 5 5 6 7 7 7 7 7 7 7 8 9 11 12 13 13
5 2 3 6 4 2 2 5 6 5 8 10 8 5 7 11 8 5 8 10 9 12 17 14 17 22 23 25 24 23 24 25 25 22 20 19 18 17 18 22 22 27 33 34 33 33 34 35 35 34 33 32 31 29 28 27 25 24 22 21 20 19 18 19 19 19 17 15 16 16 17 17 16 16 16 15 12 10 9 8 8 7 7 7 6 6 7 7 7 7 8 9 9 11 12 13 14
4 3 6 6 3 4 5 8 9 8 9 12 11 7 8 12 9 5 8 13 12 14 17 12 14 20 21 21 21 21 23 25 26 23 20 19 19 17 18 22 21 24 31 33 34 35 37 38 38 38 36 34 33 32 30 29 28 28 26 24 23 22 20 19 20 20 19 17 16 17 18 17 17 17 17 16 15 14 12 11 10 8 8 8 7 6 7 8 8 8 9 9 10 12 13 13 14
3 5 7 2 1 5 6 7 10 9 9 11 10 8 9 11 9 9 10 12 12 15 18 15 16 20 18 17 20 20 20 23 24 24 21 19 18 17 17 20 21 21 25 31 35 36 38 40 40 39 38 36 35 35 33 31 31 29 28 27 25 23 21 20 21 22 21 19 18 18 18 17 18 17 17 18 18 17 15 14 12 10 10 10 9 8 8 9 9 9 9 9 11 12 14 14 14
3 7 9 3 2 6 5 4 8 8 8 9 8 9 10 9 10 13 13 12 14 17 17 18 21 21 19 19 22 22 21 22 22 23 23 21 20 18 17 17 18 18 20 28 35 37 39 40 40 39 37 37 37 37 35 33 32 31 30 28 27 25 22 20 21 22 22 20 19 19 18 19 19 18 18 18 18 17 17 17 15 13 12 11 11 10 10 10 10 11 10 10 11 13 14 15 15
6 7 7 6 7 8 8 6 8 9 7 9 10 11 9 9 12 12 16 21 25 28 25 28 30 27 26 26 26 26 24 24 23 24 25 24 23 21 19 17 17 18 19 23 29 35 40 41 41 40 38 37 38 38 36 34 34 34 33 31 29 26 23 22 22 22 22 21 20 20 19 20 19 19 19 18 18 18 18 18 17 14 13 13 12 11 11 11 12 12 11 11 12 13 15 16 16
7 7 4 6 8 10 11 10 13 12 11 13 14 14 10 11 12 9 18 32 35 37 34 34 35 33 32 31 30 31 29 27 26 26 25 25 26 24 23 20 18 17 19 21 23 31 40 41 42 42 42 41 41 41 39 37 37 36 35 33 31 27 24 24 23 22 22 22 22 21 20 20 20 19 19 19 18 18 18 18 17 16 15 14 13 12 12 12 13 13 13 12 12 13 14 16 17
9 9 4 4 7 9 12 13 15 15 15 16 16 16 13 13 12 12 29 42 37 34 31 27 27 28 29 29 30 31 30 30 28 28 27 26 26 26 25 23 20 19 22 22 22 29 36 41 43 43 43 44 44 43 41 39 38 38 36 34 32 29 26 25 22 22 23 23 22 22 21 21 20 20 19 18 18 18 18 17 17 17 15 14 14 13 13 13 13 13 13 13 13 13 14 16 17
6 7 4 5 8 9 11 13 13 13 12 12 13 15 11 9 9 16 32 35 25 20 19 18 19 21 23 23 24 25 27 27 26 27 27 27 27 27 28 24 22 23 23 21 22 24 28 36 42 42 43 45 45 43 41 41 40 41 39 34 33 30 27 26 23 23 23 23 22 22 22 22 21 21 19 18 17 17 16 16 17 17 16 15 14 14 13 13 14 14 14 14 13 13 14 15 16
2 5 7 9 11 10 11 11 9 10 11 10 11 13 11 5 2 13 24 20 16 19 20 21 21 21 23 22 22 23 24 25 25 25 26 26 27 29 30 28 26 24 22 22 22 22 26 35 40 40 43 44 45 44 42 42 42 42 39 34 33 32 29 28 27 24 24 24 23 22 22 23 22 21 20 18 17 16 15 16 16 16 16 15 15 14 14 14 15 15 15 14 14 14 14 14 15
3 6 9 10 11 10 10 8 7 6 8 7 8 14 13 5 5 16 23 19 18 21 22 23 23 23 24 23 24 24 24 25 25 26 26 27 27 29 30 31 30 26 24 24 23 23 28 36 38 40 42 43 44 45 45 45 44 43 41 36 34 34 32 31 29 25 24 26 25 24 23 23 23 22 21 19 18 17 15 14 15 16 17 16 16 15 15 15 15 15 15 15 15 14 14 14 14
4 5 8 9 8 7 3 1 2 2 3 5 7 12 10 9 11 18 16 16 18 19 20 21 22 25 27 28 29 28 28 27 26 27 27 28 28 30 31 32 31 30 28 25 22 23 28 34 37 38 42 44 46 48 49 49 47 45 43 39 36 35 34 34 31 25 25 27 26 25 25 24 24 23 22 21 20 18 16 14 13 15 16 17 16 16 16 16 16 16 16 15 15 15 14 14 14
4 2 4 9 8 4 2 3 2 2 3 4 5 8 5 7 14 11 7 12 15 17 19 21 21 24 27 28 28 27 26 25 24 24 24 25 27 29 32 32 31 31 31 28 25 24 26 32 36 37 40 44 47 50 52 51 49 47 45 41 37 36 37 38 35 28 27 28 28 27 27 27 26 25 24 22 22 21 19 16 14 14 15 17 17 17 17 17 17 16 16 16 16 15 15 15 15
3 1 2 4 5 1 3 2 2 2 0 2 3 5 8 11 5 4 9 14 19 20 21 22 22 22 22 21 21 21 21 21 21 19 19 19 20 24 28 30 31 32 33 32 30 26 24 29 34 36 38 40 43 48 50 50 48 46 44 42 40 39 39 40 37 31 27 27 28 29 29 29 29 28 27 25 24 23 21 19 17 16 16 16 17 18 18 17 17 17 16 16 16 16 16 16 16
1 3 3 1 3 3 2 3 2 2 1 1 4 4 9 14 7 16 18 23 23 22 20 21 20 20 21 20 20 19 19 19 20 20 19 18 17 18 21 26 29 32 33 32 34 31 25 26 33 35 37 37 39 43 45 47 47 46 45 43 42 41 40 40 38 35 31 28 28 29 30 31 31 30 29 28 27 25 24 23 21 19 18 17 18 18 18 18 18 18 17 17 17 17 17 16 16
2 2 4 2 4 6 2 3 2 1 0 1 4 4 10 10 7 19 24 25 21 18 19 21 21 22 23 23 22 23 22 23 25 25 22 19 17 16 16 18 23 29 33 32 32 31 25 25 31 34 37 37 37 39 41 45 47 47 46 45 44 44 44 42 41 39 36 33 32 30 29 31 32 32 31 30 29 28 27 25 24 23 22 21 21 19 18 18 18 19 19 18 19 18 18 18 17
1 2 4 4 5 6 4 2 3 1 2 3 4 7 14 15 8 19 24 22 20 19 19 21 22 23 24 25 25 26 26 28 31 31 27 21 16 13 13 13 15 22 28 30 27 24 23 24 29 33 36 37 37 36 38 41 43 45 45 45 45 46 47 46 45 42 39 36 35 34 32 30 31 32 32 32 31 30 28 27 27 26 25 24 24 23 22 20 19 20 20 20 20 20 20 20 19
3 4 5 5 5 6 7 4 1 1 3 6 6 9 16 15 9 17 21 21 20 20 19 20 22 23 25 26 27 28 28 31 35 34 30 24 18 13 9 9 10 14 20 26 24 22 22 24 26 30 34 37 37 36 36 36 39 43 44 44 46 47 48 48 47 44 42 40 40 40 37 32 31 31 32 34 34 32 30 30 29 29 28 27 26 26 26 24 22 22 21 21 21 22 23 22 22
6 6 6 8 8 7 9 5 2 2 5 9 9 10 13 13 10 14 17 18 20 21 21 21 23 23 25 26 27 28 29 33 39 38 34 28 22 16 10 7 7 9 12 18 22 21 21 22 25 28 31 34 37 37 36 36 37 41 43 45 47 47 47 47 47 44 42 41 42 44 41 37 35 32 33 36 35 34 33 33 32 31 30 29 29 29 28 27 26 25 24 23 22 23 24 24 23
5 5 6 9 9 9 7 3 2 2 5 8 6 7 9 9 9 13 14 17 22 23 23 23 24 23 24 26 28 29 28 32 40 43 39 33 27 20 14 9 8 7 8 11 16 17 19 20 23 27 30 33 36 37 37 37 38 39 42 44 45 44 43 44 47 46 42 39 40 41 42 43 41 36 37 39 37 36 36 36 35 34 33 31 31 30 29 29 28 28 28 27 26 25 26 25 25
4 6 7 7 8 9 5 1 1 2 3 5 4 8 6 5 10 13 14 16 21 22 22 23 23 23 24 26 27 28 27 31 40 47 45 41 35 28 21 16 12 10 8 8 11 13 15 17 20 24 27 31 35 38 38 37 39 39 40 40 39 41 41 41 44 45 44 44 43 42 43 46 46 43 43 42 40 39 39 39 38 37 34 33 32 31 31 31 31 31 31 31 30 29 30 29 27
5 5 6 6 5 6 4 2 3 3 2 5 6 10 4 11 11 12 16 17 18 20 22 22 23 24 25 27 27 27 28 33 41 48 49 48 43 36 30 25 19 14 11 10 10 10 12 14 17 20 23 26 30 36 38 38 39 40 39 39 38 38 38 40 42 43 45 46 47 47 46 47 48 48 47 45 43 42 41 41 40 39 36 35 34 33 34 34 34 34 33 34 34 34 34 33 31
6 5 5 7 2 2 4 2 2 3 3 6 8 8 1 10 10 11 16 17 17 19 21 22 23 24 25 26 27 28 30 33 38 43 48 50 48 45 39 33 28 21 16 13 12 11 10 11 13 16 19 21 23 28 34 37 39 39 39 40 40 39 40 40 41 42 43 42 44 46 45 43 44 44 44 44 44 44 43 42 41 41 39 39 38 36 36 36 35 35 35 36 37 37 37 36 34
7 8 8 9 5 4 6 2 3 5 3 3 7 7 4 9 8 9 10 13 17 18 20 22 24 24 24 25 28 31 33 33 35 38 43 47 49 48 45 40 35 30 25 20 16 14 13 11 10 13 16 18 18 20 25 30 33 35 38 40 40 40 41 41 41 42 41 41 41 41 40 40 41 42 41 42 42 43 45 45 44 44 42 42 40 38 38 36 36 36 37 38 39 39 39 38 37
6 7 9 11 8 5 6 4 5 6 3 2 4 7 2 9 10 8 6 9 14 16 20 22 23 24 24 25 27 29 32 35 37 38 41 44 46 46 46 44 41 37 32 27 21 16 13 11 10 10 12 15 18 20 24 28 30 33 36 38 39 40 41 41 41 41 40 40 40 39 39 40 40 41 41 40 38 38 41 42 42 42 42 42 42 41 40 38 37 37 37 39 40 41 40 41 42
5 1 2 6 6 4 4 4 3 5 3 1 1 5 4 5 8 8 7 11 13 14 18 20 21 22 23 24 25 26 28 32 35 38 42 43 44 45 45 45 43 41 36 31 26 21 16 12 10 8 10 13 17 19 22 26 29 32 34 36 38 39 40 40 40 39 39 38 37 37 37 36 36 37 38 37 35 34 35 36 37 37 38 40 41 41 41 39 38 37 37 39 40 40 42 44 45
3 2 2 1 1 3 4 4 5 5 5 2 5 4 7 5 4 7 6 10 14 14 15 17 18 20 20 21 23 24 26 28 31 35 39 42 43 44 43 42 41 39 38 35 32 27 22 17 13 10 10 11 14 16 17 18 21 24 28 31 34 36 36 36 35 34 35 38 38 36 35 34 33 34 36 35 34 34 35 35 36 36 36 37 37 39 39 38 38 37 38 39 40 40 42 45 46
1 2 2 2 1 2 2 4 5 3 4 5 6 7 6 5 5 7 5 8 13 14 12 13 16 18 18 20 21 23 25 27 30 33 37 40 40 40 40 38 37 37 36 36 35 32 28 23 19 14 11 11 12 13 15 15 16 18 20 24 28 31 32 32 31 29 31 34 36 35 35 34 33 34 34 35 34 35 35 36 36 37 37 37 37 38 38 37 37 37 38 39 40 40 40 42 45
2 2 1 1 2 0 1 3 3 1 4 6 4 8 6 4 3 4 5 7 9 10 9 10 14 16 17 19 21 22 24 26 29 32 35 37 37 38 37 35 35 35 34 33 32 32 31 29 26 22 17 13 11 11 12 14 15 16 16 18 22 25 28 30 31 31 31 33 34 34 34 34 34 34 34 34 35 35 35 35 36 36 36 36 37 37 37 37 37 37 38 38 39 39 39 40 43
2 3 3 3 3 2 1 2 1 3 5 2 1 4 5 3 3 5 5 4 4 6 7 10 14 17 18 19 20 22 23 24 26 28 31 33 35 36 35 35 35 33 32 32 31 30 30 29 28 26 24 20 15 12 10 11 13 15 16 16 18 20 23 26 28 29 30 31 32 32 32 33 33 33 33 33 33 33 33 33 33 34 34 35 36 36 37 36 36 37 37 38 39 39 39 40 41
2 3 4 4 3 2 2 2 2 4 3 2 3 1 4 5 1 5 3 2 2 4 6 10 13 15 16 18 19 20 20 20 20 22 25 29 33 35 36 35 35 35 33 32 32 30 29 28 26 25 24 23 22 19 15 11 9 11 13 15 17 18 20 22 24 25 26 27 28 28 29 30 30 30 30 30 30 29 29 30 31 32 32 34 34 34 35 35 35 35 37 38 39 39 39 39 41
3 3 3 4 3 1 3 2 2 4 1 3 3 0 4 3 2 5 3 2 2 3 5 7 11 13 14 16 17 17 17 18 18 18 20 23 26 30 34 35 35 36 36 35 33 32 30 28 26 24 23 22 21 19 18 16 13 10 9 10 12 15 17 19 21 22 22 24 25 26 27 27 28 29 29 29 28 27 27 28 28 28 29 30 31 31 32 32 33 34 35 37 38 38 38 39 40
3 2 2 3 3 3 5 5 4 4 1 3 4 1 3 1 4 5 4 4 2 2 3 5 8 10 12 14 15 15 16 17 18 18 18 19 19 21 27 33 35 35 36 36 35 34 32 30 28 26 24 22 20 18 17 16 15 14 12 10 9 8 10 12 15 17 19 21 23 24 25 26 27 28 29 29 29 29 29 29 28 28 28 28 28 28 29 30 31 32 34 36 36 37 37 37 38
1 1 2 3 2 4 5 5 5 6 5 1 3 1 3 0 4 7 6 5 3 3 2 3 5 8 10 11 12 14 15 16 17 18 18 19 19 17 19 27 32 34 35 34 35 35 34 33 31 29 27 24 21 20 18 16 15 13 12 11 10 9 8 7 8 9 11 14 17 19 20 22 24 25 26 27 28 29 30 30 30 30 29 29 28 28 28 28 28 30 32 34 36 36 37 37 37
1 1 2 2 2 3 3 2 2 4 7 4 2 1 1 2 2 6 6 3 3 4 4 3 5 7 8 10 12 14 15 15 17 19 19 18 18 18 18 20 23 29 33 34 34 34 34 34 33 32 30 27 25 22 20 18 16 14 13 12 11 9 9 8 8 8 8 8 10 11 13 15 17 19 21 22 24 25 27 28 30 30 30 30 30 30 29 28 28 29 30 32 34 35 36 37 37
1 2 1 1 1 2 3 2 1 1 5 3 1 2 1 2 3 7 5 4 2 2 4 5 6 8 9 11 12 14 15 16 16 18 19 18 17 18 18 17 17 20 26 29 32 34 35 35 34 33 32 30 28 25 22 20 18 16 15 13 12 12 11 10 10 10 10 10 10 10 11 11 12 14 15 16 18 19 21 23 25 26 27 28 29 29 30 30 30 30 31 31 32 33 35 36 36
1 1 1 2 1 1 1 2 1 3 6 4 3 6 3 2 1 5 7 6 3 0 3 5 7 10 11 12 13 14 15 15 15 16 17 17 16 16 17 16 16 18 21 23 28 32 35 36 37 36 35 32 30 28 25 23 21 19 18 16 15 14 13 12 11 11 12 12 12 12 12 12 13 13 14 14 15 16 17 18 19 21 22 24 25 26 28 29 29 31 32 32 32 32 33 35 35
2 1 1 1 2 1 1 1 3 4 7 6 4 4 4 3 2 5 6 5 2 1 3 5 9 11 11 13 14 14 14 15 16 16 17 18 16 15 15 15 16 17 19 21 24 26 30 34 36 37 37 36 34 31 28 25 23 22 20 19 18 16 15 14 13 13 13 13 14 14 14 14 14 15 15 15 16 16 17 18 18 19 20 21 22 23 24 26 27 29 30 31 32 32 33 34 34
0 1 1 0 1 2 1 1 2 4 6 6 5 6 4 1 3 5 4 1 1 3 4 6 9 11 12 14 16 17 16 17 18 18 18 19 18 16 14 15 16 16 16 20 22 22 25 32 36 35 35 36 37 36 32 29 26 24 22 20 19 18 17 16 15 14 14 14 15 15 15 15 15 16 16 17 17 18 18 18 19 19 20 21 21 22 23 24 25 27 29 30 31 31 33 34 34
1 2 1 1 1 1 2 2 1 2 6 5 6 8 5 2 4 4 3 2 2 4 5 6 9 9 11 13 15 17 18 18 19 19 18 20 20 18 15 14 15 14 14 19 23 20 19 27 36 37 35 36 37 38 36 34 31 27 25 23 21 20 18 18 17 16 16 16 16 16 16 17 16 17 17 17 18 18 19 19 20 20 20 21 21 22 22 23 24 26 27 28 29 30 32 33 33
1 2 3 3 2 2 4 3 1 1 4 4 6 10 6 2 3 3 4 3 3 6 6 6 9 10 10 13 14 15 19 19 19 19 19 19 21 19 16 15 16 14 14 18 24 22 16 20 30 36 38 38 39 39 36 34 32 29 28 26 24 22 21 19 18 18 17 17 17 17 17 17 17 17 18 18 19 19 19 20 20 20 21 21 21 22 22 22 23 24 25 26 27 28 30 31 32
Wind_Direction
313 318 330 331 336 333 324 342 272 228 244 267 262 269 249 151 343 280 257 239 268 251 207 236 185 182 193 237 273 289 293 255 242 254 282 35 7 347 217 194 189 200 200 197 196 194 194 194 191 188 191 188 185 179 173 171 169 168 168 171 176 179 174 168 168 165 158 159 171 176 184 179 161 153 159 200 181 143 120 110 110 112 115 113 113 112 111 111 111 111 112 115 116 115 118 114 108
312 317 333 336 341 332 206 347 277 260 256 269 265 259 314 100 240 264 273 292 316 32 219 224 202 205 216 255 283 284 264 237 239 253 272 299 318 357 171 182 185 196 198 198 195 193 194 195 192 189 191 187 185 181 174 175 173 175 176 177 182 186 181 174 173 169 164 163 170 177 170 165 175 165 141 164 167 133 117 116 119 118 117 117 115 117 116 115 115 116 117 119 119 117 118 114 110
309 317 335 335 349 8 157 195 266 270 269 275 280 246 101 258 262 285 308 326 333 271 256 204 213 221 224 250 253 257 263 243 241 246 261 271 275 277 244 185 187 192 195 197 194 192 194 195 193 190 190 186 185 181 177 178 177 179 181 182 185 189 185 168 167 166 165 171 174 176 166 164 175 172 151 146 133 119 117 117 121 120 118 119 117 119 117 114 117 118 116 118 120 121 120 114 112
305 315 332 326 281 258 205 246 270 272 271 279 293 111 147 274 294 326 347 319 264 232 223 199 227 228 226 247 256 260 263 260 254 249 255 261 258 255 241 200 193 192 194 196 194 193 195 195 192 191 190 188 187 184 181 183 182 183 183 186 191 185 176 165 169 166 163 173 175 174 165 159 159 165 164 153 133 127 135 122 118 122 120 121 118 119 118 115 116 117 118 120 121 121 121 115 114
307 311 318 306 261 275 245 268 268 252 269 289 294 308 219 275 309 325 334 274 240 212 205 207 243 232 229 245 245 256 261 261 264 254 250 255 255 250 230 208 200 196 195 196 196 194 196 195 192 192 191 188 187 189 186 185 186 186 180 177 180 170 165 165 170 168 165 173 174 169 162 160 161 165 159 155 146 141 153 127 122 125 121 124 123 124 123 118 116 119 121 119 118 119 121 116 118
312 309 314 253 211 185 210 255 246 250 272 285 285 299 310 294 310 313 299 248 222 215 212 212 245 256 244 243 234 241 257 262 271 262 254 257 254 249 232 212 204 200 195 196 198 195 196 195 193 192 192 191 190 193 189 185 184 180 176 177 179 175 172 160 158 162 163 171 174 170 169 170 168 167 157 153 152 153 164 125 126 126 121 124 127 130 125 120 117 119 120 116 115 117 121 118 125
276 274 288 180 148 173 251 264 263 269 281 244 280 298 313 326 322 302 283 247 211 212 219 220 232 262 260 242 243 250 256 258 262 267 265 264 255 250 234 214 204 199 196 196 199 196 195 196 196 194 194 194 191 192 189 184 183 178 180 186 185 185 184 169 162 160 159 167 172 177 178 176 176 174 160 152 149 151 146 126 129 124 119 119 124 127 122 121 119 119 120 119 116 117 123 125 134
246 253 254 244 221 234 261 267 272 279 284 258 280 283 299 313 301 286 281 263 219 206 216 221 217 249 262 235 252 262 262 262 263 268 269 267 262 251 229 213 205 200 199 197 199 198 196 196 197 196 194 196 194 191 187 184 186 186 186 188 188 188 188 182 175 165 166 170 172 179 177 173 177 172 160 157 155 152 140 131 131 126 122 122 124 124 120 123 122 120 120 120 118 120 126 131 142
223 223 211 252 255 253 265 269 273 275 267 271 275 270 283 293 280 272 273 264 243 229 214 211 206 232 286 244 254 270 272 271 270 274 273 270 267 256 234 217 209 204 201 199 200 200 198 197 197 198 195 199 200 193 189 188 189 191 189 191 191 189 193 197 192 180 182 180 176 180 175 169 169 169 165 162 164 155 141 136 136 131 130 129 130 128 126 127 126 121 120 123 123 123 129 139 153
200 219 221 248 258 261 265 265 262 255 256 272 278 272 279 277 263 262 265 270 252 232 222 204 211 237 278 282 264 274 278 278 277 278 277 273 267 252 239 223 213 208 203 200 200 200 200 199 197 199 199 199 196 193 194 193 191 196 195 197 193 191 198 200 193 184 184 179 177 180 178 172 166 169 166 165 169 155 149 154 152 139 131 130 130 131 131 129 128 125 125 132 136 136 140 151 160
213 182 189 247 254 262 267 271 268 272 271 277 281 272 278 266 249 259 249 261 253 230 226 200 218 240 260 278 269 277 283 282 283 283 280 268 259 245 238 227 216 211 205 202 201 200 202 201 198 198 200 200 194 194 200 197 193 197 197 196 194 195 198 191 186 183 184 180 181 181 182 184 175 168 159 165 171 160 166 166 153 139 131 130 128 130 131 130 131 129 131 144 153 154 156 161 164
232 181 202 254 259 264 276 287 285 296 289 278 288 277 308 231 222 268 252 255 248 235 228 210 231 249 251 265 265 284 291 285 287 286 279 267 256 240 236 229 219 214 208 204 203 202 204 205 202 198 199 199 194 195 201 199 194 195 195 193 193 195 192 190 188 181 183 185 187 183 184 189 180 174 168 167 167 168 176 158 142 139 135 134 132 133 133 131 132 129 135 152 161 164 166 169 171
238 196 231 263 274 273 276 284 283 293 290 281 358 62 318 222 242 285 279 266 250 242 243 220 232 259 266 277 276 286 294 289 286 283 280 272 255 240 234 228 220 214 208 206 204 203 205 209 208 203 201 196 191 193 196 196 195 196 197 194 194 199 192 188 188 181 184 188 189 187 188 189 183 186 189 180 169 169 170 151 144 144 139 137 136 134 132 131 132 137 148 159 165 169 175 178 180
227 208 247 270 304 278 263 272 284 286 294 2 50 308 256 251 268 285 278 275 261 240 259 233 226 247 265 271 275 280 293 292 290 288 285 276 258 244 233 227 221 213 208 209 206 205 207 211 211 205 202 198 192 192 194 198 201 201 200 194 192 201 197 189 189 189 193 195 193 195 196 196 194 197 198 189 170 163 159 151 150 147 143 141 137 135 134 138 142 152 163 167 168 174 184 186 186
203 197 243 266 264 264 242 256 291 284 294 5 10 291 257 261 273 274 259 272 281 254 264 244 209 222 263 264 287 281 285 295 299 294 288 277 260 246 230 223 221 213 209 210 207 208 210 213 214 206 199 200 199 197 197 200 202 202 201 195 191 197 202 199 199 197 197 198 202 207 206 205 206 206 206 195 172 163 158 151 152 151 152 150 148 147 144 149 154 165 174 175 174 179 188 188 186
182 194 240 264 260 260 218 219 274 273 292 9 334 295 279 270 273 271 259 260 276 271 264 240 212 232 261 261 276 280 283 290 292 291 284 268 251 242 232 222 218 214 211 210 209 211 213 214 213 208 200 201 206 204 201 199 198 202 204 198 195 200 207 208 209 206 204 205 211 217 217 215 215 216 216 204 186 177 170 160 164 166 159 155 159 159 157 161 168 177 183 183 178 179 186 185 183
173 201 246 255 244 244 216 217 252 301 316 338 132 282 292 292 286 277 283 267 262 268 260 245 233 246 258 261 270 275 280 283 283 284 274 259 246 239 230 220 214 212 212 210 210 212 214 215 212 209 205 204 208 208 205 204 203 207 210 204 200 206 213 214 215 215 215 213 214 218 220 219 219 221 215 205 200 195 205 216 215 213 177 164 171 174 173 178 186 192 192 189 183 179 182 182 183
182 218 246 249 249 244 223 241 260 313 304 304 305 292 289 296 302 292 294 268 247 259 259 250 250 260 264 264 270 273 275 276 276 275 267 259 251 243 229 222 219 214 211 210 211 213 214 217 215 211 210 208 210 212 211 212 213 212 215 215 213 216 217 220 222 221 220 217 218 218 220 220 220 223 219 216 212 205 223 239 239 236 216 192 194 196 194 197 202 205 203 198 192 187 185 184 184
206 231 242 250 247 235 224 252 262 266 288 303 298 284 276 283 296 295 287 271 249 260 263 245 248 268 272 269 274 273 271 272 272 269 264 261 255 250 237 229 225 216 213 211 212 214 215 217 218 216 215 212 212 215 216 218 221 221 221 221 221 223 224 228 226 223 222 224 227 225 223 223 223 227 228 230 225 216 228 242 244 244 238 230 227 221 217 218 216 214 213 208 201 197 194 191 189
213 215 248 256 241 259 240 240 255 260 281 297 293 286 273 272 280 270 272 276 262 260 267 249 245 269 275 274 280 277 271 268 268 265 258 255 250 244 240 235 230 222 219 216 214 216 217 215 215 217 218 217 216 216 217 220 225 227 224 222 221 225 230 232 229 225 224 227 231 228 226 226 226 229 231 231 228 225 231 242 248 250 249 247 251 245 232 230 227 223 222 217 210 206 203 200 197
183 205 256 285 152 268 247 234 257 265 273 279 283 287 277 270 267 251 258 275 265 261 268 262 264 280 282 277 283 280 272 267 265 264 255 247 242 237 238 240 237 230 224 221 218 218 218 215 213 214 216 217 218 218 218 220 225 226 222 221 222 226 231 233 231 227 225 228 231 231 230 228 228 229 229 229 229 231 235 243 251 252 252 249 247 245 237 234 233 232 230 226 219 213 210 207 205
208 225 256 272 215 268 274 254 265 271 271 268 267 270 274 275 262 248 245 254 263 273 277 277 279 283 282 279 281 280 272 268 265 264 260 252 243 236 234 236 234 229 224 222 221 220 220 219 216 215 216 218 220 220 220 222 225 226 222 221 222 224 229 235 236 232 227 228 233 234 232 229 230 231 231 232 235 238 240 245 251 252 251 248 244 243 240 238 238 237 235 231 226 221 218 214 212
241 240 242 248 236 255 278 281 275 276 268 260 259 265 274 274 268 256 246 249 263 275 277 280 284 281 278 278 278 278 274 271 268 267 267 262 255 247 240 235 231 227 224 223 222 223 222 222 222 223 223 224 226 225 225 227 228 228 226 225 225 226 232 236 238 236 232 231 234 235 233 232 233 234 235 237 239 242 244 246 251 253 252 247 244 243 241 241 240 240 239 237 233 228 224 220 219
241 259 243 250 248 251 268 275 275 276 265 263 266 271 270 261 274 281 264 262 268 279 282 282 285 282 279 278 277 277 275 272 271 271 270 267 265 261 253 245 239 232 229 228 223 225 227 225 224 226 227 226 227 228 229 230 230 229 227 226 226 228 235 238 237 237 234 232 234 234 233 234 234 236 236 238 240 243 246 247 250 252 252 249 245 243 242 241 241 242 240 240 239 234 230 227 225
224 255 266 260 261 258 270 276 276 277 269 271 271 267 262 258 278 283 275 277 279 284 289 286 285 283 280 278 278 278 277 275 273 272 269 266 264 260 254 245 237 234 233 231 227 228 229 228 227 227 228 226 225 225 225 227 230 229 226 227 227 227 233 237 236 238 235 231 233 234 233 233 231 233 235 237 240 242 244 245 247 250 251 249 249 247 244 243 242 242 241 241 242 240 236 232 230
214 251 279 270 271 273 280 279 276 275 271 275 270 267 266 261 281 276 274 283 288 291 295 293 289 285 284 283 283 283 283 282 281 279 272 267 263 259 255 245 235 235 235 232 230 228 228 230 229 229 230 228 225 224 222 224 228 228 225 227 230 228 234 237 233 236 235 230 233 234 232 232 230 230 231 233 237 239 241 240 242 245 247 248 249 250 248 247 244 242 242 242 242 242 240 238 235
251 274 283 270 274 280 280 275 272 277 275 267 263 280 283 248 253 273 275 285 294 300 303 301 297 292 292 291 290 289 288 289 289 285 277 271 266 262 258 249 241 238 236 234 233 230 232 234 231 230 232 230 227 226 226 228 227 226 225 228 233 233 238 239 231 233 236 231 232 234 232 230 228 228 228 230 232 234 235 237 240 241 244 246 247 249 249 249 247 244 243 242 243 243 243 241 240
308 302 288 268 267 272 267 265 277 284 279 269 271 284 272 205 189 254 271 290 299 302 303 303 305 304 306 306 303 300 298 297 294 288 283 279 274 269 263 257 251 245 239 237 236 235 237 239 235 232 233 232 232 232 232 233 231 229 228 231 237 237 239 239 232 233 238 232 231 233 233 230 228 227 226 227 228 227 229 234 240 242 243 244 246 248 248 249 247 245 244 244 245 246 246 245 244
299 303 296 285 273 270 265 279 323 300 284 314 312 286 253 182 214 249 272 299 303 305 307 311 314 315 317 317 316 314 310 308 302 297 294 290 284 277 272 267 261 253 247 243 239 240 242 244 240 235 235 234 234 234 233 234 233 232 232 233 239 240 241 241 236 240 247 240 234 233 233 232 228 225 224 224 225 224 224 228 237 244 245 245 244 246 247 248 247 246 246 246 247 248 249 249 248
282 273 296 301 291 274 80 63 346 302 294 349 338 299 281 203 220 245 305 320 322 325 322 323 323 322 322 321 323 324 322 321 317 310 303 296 289 281 276 273 266 258 254 249 243 241 244 248 245 238 238 237 236 234 231 231 231 231 233 233 236 241 244 242 236 241 252 248 239 234 234 234 231 227 223 221 222 223 221 222 232 243 246 245 243 243 244 246 248 249 249 249 250 251 252 252 251
285 281 234 289 302 267 102 62 314 297 352 34 326 282 293 289 264 67 10 351 347 337 331 332 333 335 334 333 334 335 337 338 338 333 321 308 295 282 275 271 266 261 257 253 249 244 242 250 250 243 240 240 240 238 233 232 231 232 235 235 236 240 243 242 237 237 245 249 245 240 237 235 233 230 225 222 222 223 223 222 227 237 245 245 242 242 244 245 248 250 251 252 253 253 254 255 255
297 286 246 215 281 273 109 76 2 320 80 55 296 272 287 298 25 57 17 357 351 341 346 352 355 359 358 358 357 355 355 355 355 353 341 326 312 297 283 269 262 260 258 255 254 249 240 247 253 249 244 242 242 243 241 239 236 235 237 239 239 241 242 242 241 239 239 244 249 248 245 241 236 232 229 226 224 225 227 227 225 228 236 238 239 242 244 247 249 250 252 253 255 256 256 257 258
168 251 281 281 278 297 329 102 76 343 286 234 255 278 291 288 48 39 9 1 2 4 11 13 13 14 13 13 11 10 8 7 6 3 354 338 324 317 305 281 262 258 258 255 254 250 240 243 252 250 246 245 242 242 244 244 242 239 239 240 240 240 240 240 241 241 240 244 247 247 249 248 243 238 234 231 229 229 230 231 230 229 231 230 231 236 239 246 254 254 254 254 255 257 257 258 258
170 217 275 273 264 291 297 182 108 85 230 250 234 249 272 275 342 19 19 23 26 27 23 20 19 18 17 16 14 14 11 10 8 6 3 353 336 325 321 304 272 257 257 255 252 249 241 241 251 253 249 247 245 243 244 245 246 245 243 243 242 240 239 238 239 237 238 243 245 245 245 248 249 245 241 237 235 235 233 232 234 235 235 232 230 232 232 238 248 254 258 259 258 258 258 258 258
302 284 283 288 263 257 268 256 95 30 259 260 249 249 268 284 350 33 37 35 36 34 26 24 23 19 19 18 16 16 15 14 14 14 12 6 352 338 332 326 298 267 258 256 252 247 243 240 248 255 252 249 247 246 245 246 247 247 246 245 244 243 240 240 240 239 241 242 241 240 239 241 246 249 249 245 240 240 239 236 236 237 237 236 234 233 233 233 237 243 250 256 261 262 261 260 259
291 287 282 287 283 265 267 267 87 28 292 271 257 253 276 306 3 44 42 37 40 36 30 28 26 23 22 20 19 18 17 18 21 23 21 18 10 358 351 356 339 300 271 261 254 248 245 241 242 250 253 250 248 246 245 244 245 246 247 245 244 245 244 244 244 244 249 252 249 245 241 238 238 242 248 248 243 242 243 242 240 238 237 236 235 237 239 239 237 238 241 245 253 259 261 261 261
273 272 266 267 275 277 275 267 105 76 290 274 263 269 290 323 18 53 44 40 41 32 30 29 26 26 24 22 20 20 20 19 25 28 26 24 21 15 12 16 19 354 317 284 266 255 249 244 240 247 254 252 248 247 245 244 244 244 245 245 246 248 248 250 249 248 249 252 254 253 252 249 243 241 243 244 243 243 244 243 241 239 237 236 238 242 246 245 241 241 242 244 247 252 255 257 259
244 256 268 266 260 268 284 23 109 127 269 274 304 312 325 58 66 60 46 44 43 33 31 27 25 29 26 25 22 20 20 20 27 31 29 27 24 22 21 20 24 20 5 335 300 275 261 252 244 245 253 254 249 248 249 248 246 246 247 248 249 250 250 251 252 253 252 250 249 250 253 254 251 248 246 244 243 241 241 242 241 241 239 239 242 244 246 245 243 244 245 246 247 248 249 250 251
234 240 263 269 259 269 286 67 122 145 266 286 327 327 14 94 86 66 55 54 50 38 37 32 27 31 28 26 23 19 20 22 27 32 32 31 27 24 23 22 21 18 19 7 340 311 281 265 252 245 249 252 251 250 251 251 251 251 252 253 253 254 254 253 252 253 254 253 252 251 252 254 255 255 253 251 250 246 243 244 245 245 244 243 243 244 245 246 246 246 247 249 249 247 248 248 247
230 228 251 262 260 268 265 96 131 199 255 290 310 308 157 117 105 82 66 60 56 45 43 40 34 35 31 29 27 23 22 22 25 29 33 35 33 30 26 23 21 17 17 14 1 345 319 289 268 257 252 250 253 255 252 252 255 255 254 254 252 253 254 255 255 254 255 256 257 257 258 259 260 261 261 260 260 256 252 250 250 249 248 247 245 245 247 248 250 250 250 251 251 249 250 252 251
235 224 237 258 266 252 256 328 327 257 220 262 290 281 194 143 122 94 76 63 56 44 41 40 36 35 33 30 29 27 27 26 25 26 31 36 38 37 34 29 24 20 18 13 8 1 347 327 297 276 262 252 253 256 252 251 251 249 249 250 248 249 250 251 253 255 257 258 259 260 263 263 261 262 262 262 264 262 257 255 253 252 251 250 249 249 250 252 254 255 255 254 254 253 255 258 257
259 225 234 260 278 281 270 311 322 278 221 151 307 304 201 140 115 92 84 64 51 41 40 38 31 29 29 28 26 25 28 31 31 30 32 36 40 41 40 37 33 28 23 16 9 5 358 351 333 300 277 265 263 261 255 254 252 248 248 249 249 250 252 253 256 259 261 262 263 264 265 266 266 267 266 266 267 268 264 261 259 257 255 254 253 254 254 255 256 258 258 258 258 257 257 258 258
280 253 265 270 273 278 272 280 284 281 292 100 328 308 263 156 105 89 87 65 51 43 40 35 29 26 25 25 23 22 24 27 30 33 35 36 39 41 42 42 40 38 34 27 18 11 5 357 346 323 295 277 271 267 261 259 257 255 254 253 253 254 256 259 264 268 269 269 269 269 269 270 271 272 272 270 270 272 271 269 267 264 261 258 256 256 257 259 260 260 260 259 260 260 258 257 258
287 38 352 329 208 243 245 250 254 282 323 281 202 229 267 259 95 95 101 66 46 37 34 30 26 23 22 23 22 22 23 24 26 29 33 35 37 39 40 41 42 42 40 37 33 26 17 7 353 336 316 297 285 279 273 268 264 262 261 258 258 258 259 261 265 268 268 268 270 273 274 274 274 275 274 273 272 273 274 274 274 272 269 265 263 261 262 264 264 263 263 262 261 260 258 259 259
14 57 329 52 69 281 234 246 264 285 318 284 195 175 251 259 123 102 98 67 40 29 26 22 20 19 19 20 18 20 23 25 27 28 30 33 36 38 38 38 39 40 41 41 41 38 32 25 13 357 338 320 307 299 291 284 275 268 264 262 260 260 260 260 260 258 258 262 266 270 271 273 274 275 275 275 275 275 275 275 275 275 273 272 271 269 269 268 267 265 264 264 263 261 260 260 260
87 126 183 120 139 10 197 245 270 252 269 279 189 175 236 266 108 62 47 58 29 14 17 17 17 17 17 18 16 16 17 19 23 26 28 29 32 34 34 35 35 36 38 39 41 41 39 37 31 23 11 355 332 314 303 297 292 285 275 267 263 262 262 261 260 259 260 263 265 267 270 272 272 272 274 275 275 275 275 275 275 275 276 276 274 273 273 272 270 269 267 267 266 265 263 262 261
126 184 239 237 195 159 173 218 240 248 245 287 82 188 240 267 69 36 32 52 359 349 6 8 10 15 17 18 16 15 15 15 16 19 22 25 28 30 30 30 30 30 32 33 35 37 38 39 38 35 31 24 13 354 326 304 295 293 290 284 277 271 267 266 266 266 267 268 269 270 272 272 272 273 274 274 274 275 275 275 275 275 275 274 274 274 274 273 273 272 271 269 268 266 265 264 264
206 251 285 283 238 183 197 166 164 247 257 58 42 221 236 247 88 65 67 81 357 350 1 2 4 10 14 16 17 17 16 14 13 14 16 20 24 26 26 26 25 24 25 26 27 28 30 32 34 35 35 33 29 23 13 354 324 300 289 285 284 281 278 274 273 272 272 272 273 273 274 273 273 273 273 273 273 274 274 275 275 275 274 273 274 274 274 274 273 272 271 269 268 267 266 265 265
239 255 277 288 297 276 254 253 222 253 303 66 55 250 236 252 83 95 105 91 33 9 3 359 2 5 9 14 15 15 15 14 14 14 14 17 20 22 24 24 23 23 22 22 21 21 21 23 24 27 29 30 30 28 26 22 14 0 335 306 289 282 279 278 277 276 274 273 273 273 273 274 274 274 274 274 274 273 272 272 272 272 273 273 274 274 274 273 272 270 269 268 268 267 266 265 264
223 254 284 285 316 308 281 291 290 280 323 91 88 65 253 201 112 129 117 92 75 25 7 359 5 6 7 10 10 10 12 12 12 12 14 15 16 17 21 22 21 22 21 20 19 17 16 15 15 17 19 20 21 21 22 22 21 20 15 4 347 322 300 288 282 278 275 272 272 272 272 272 272 272 272 272 272 271 270 269 268 268 267 268 268 268 269 269 269 268 267 267 266 265 265 263 262
194 5 319 284 314 300 286 305 306 305 315 303 123 147 274 350 129 144 128 111 95 50 21 6 10 12 10 9 9 9 9 10 10 11 11 12 13 12 13 15 15 16 16 17 17 16 15 13 11 10 9 10 10 10 11 10 11 12 9 7 5 0 353 336 315 300 289 280 276 274 272 271 270 268 268 267 266 265 265 265 264 264 263 262 262 261 261 262 263 265 265 266 265 264 264 262 261
112 81 261 269 339 300 283 313 320 312 308 291 196 192 345 34 151 159 149 152 115 58 31 28 16 13 15 14 13 12 10 10 9 8 7 6 7 8 7 7 9 10 10 11 12 13 13 12 11 9 6 3 2 2 2 2 1 0 356 355 352 349 347 340 332 326 317 305 295 288 282 276 273 271 269 268 266 265 264 263 263 262 261 259 258 257 256 255 256 258 260 263 265 265 265 263 262
150 206 276 55 25 297 280 280 119 248 276 273 250 262 143 107 207 183 182 230 201 68 19 27 22 16 18 16 15 12 10 9 7 6 4 1 0 2 3 3 2 3 4 4 6 6 6 7 7 7 4 2 360 358 356 355 353 351 349 347 345 341 336 329 324 320 316 312 308 302 297 290 283 280 276 273 271 268 267 266 266 265 263 261 259 256 255 254 253 254 255 257 261 264 266 266 265
279 241 36 61 221 256 236 262 281 268 269 266 280 286 256 207 229 176 197 239 230 219 359 12 12 13 17 14 10 6 3 3 1 1 0 358 357 355 356 358 357 358 358 358 359 360 1 1 360 359 359 359 358 356 355 353 351 349 346 344 342 338 333 329 321 315 310 306 302 297 294 290 286 284 281 278 276 273 272 270 268 268 268 266 265 262 260 257 255 254 254 255 256 259 262 264 265
328 331 15 333 273 263 171 274 301 292 286 281 279 298 273 231 170 156 191 226 235 301 342 358 360 4 9 7 4 359 356 355 353 354 355 354 352 349 350 352 352 354 355 355 354 353 356 358 356 354 354 354 353 352 352 352 350 348 346 343 340 336 332 328 321 314 308 302 298 294 290 287 285 283 282 279 277 275 273 273 271 270 269 269 268 267 266 263 260 258 257 256 256 256 258 259 262
197 235 172 332 284 290 293 293 290 279 283 286 291 303 295 206 127 143 167 194 329 331 343 354 356 358 0 2 1 355 350 348 347 347 346 347 347 344 343 345 347 349 351 353 353 349 348 352 352 351 350 351 350 349 348 348 347 346 344 341 337 334 330 326 321 316 310 304 299 295 291 288 284 282 281 279 278 276 274 274 273 272 272 270 270 268 267 266 264 262 260 258 257 256 256 257 258
200 182 89 3 284 274 282 248 191 263 273 276 287 288 289 76 108 129 114 79 9 352 346 346 351 351 352 356 357 353 349 343 340 339 339 340 341 339 337 338 340 343 345 347 350 348 344 346 349 349 347 348 348 347 345 344 343 341 341 340 337 334 331 327 323 318 312 307 302 298 295 292 289 287 284 281 279 278 276 275 273 273 273 272 271 270 268 267 266 265 264 262 259 257 256 257 257
4 41 23 335 308 295 285 272 143 220 268 273 282 283 288 70 107 108 80 63 15 355 340 338 346 342 342 348 350 352 351 344 336 332 332 335 337 336 333 332 332 335 341 344 346 346 343 342 345 345 345 345 346 345 344 342 340 338 337 337 336 334 332 329 326 321 316 311 307 303 300 296 294 292 289 287 284 282 280 279 277 276 274 273 273 272 270 269 268 268 267 266 264 261 260 259 258